Regional Weather Roundup
Issued by NWS

Home | Current Version | Previous Version | Graphics & Text | Print | Product List | Glossary On
Versions: 1 2 3 4 5 6 7 8 9 10 11 12 13 14 15 16 17 18 19 20 21 22 23 24 25 26 27 28 29 30 31 32 33 34 35 36 37 38 39 40 41 42 43 44 45 46 47 48 49 50
000
ASUS45 KCYS 291010
RWRWY

WYOMING REGIONAL WEATHER ROUNDUP
NATIONAL WEATHER SERVICE CHEYENNE WY
400 AM MDT SUN MAR 29 2015

NOTE:  "FAIR" INDICATES FEW OR NO CLOUDS BELOW 12,000 FEET
WITH NO SIGNIFICANT WEATHER AND/OR OBSTRUCTIONS TO VISIBILITY.

WYZ001-291100-
YELLOWSTONE NATIONAL PARK

CITY           SKY/WX    TMP DP  RH WIND       PRES   REMARKS
LK YELLOWSTONE   N/A     20  14  77 CALM      30.32S
W YELLOWSTONE  NOT AVBL

$$
WYZ002>013-054>058-071-098>099-291100-
NORTHERN WYOMING

CITY           SKY/WX    TMP DP  RH WIND       PRES   REMARKS
JACKSON        FAIR      28  21  74 N9        30.30S WCI  20
CODY           FAIR      37  12  35 S3        30.22S
GREYBULL       FAIR      43  21  41 W6        30.21R
WORLAND        FAIR      42  19  39 N6        30.22R
SHERIDAN       CLOUDY    44  27  51 NW14      30.20R
BUFFALO        FAIR      43  25  49 NW26G37   30.15R
GILLETTE       FAIR      41  31  67 NW24G32   30.14R
HULETT         CLOUDY    41  32  70 NW22G43   30.13R
NEWCASTLE      FAIR      39  30  70 NW31G46   30.11R WCI  27

$$
WYZ014>020-022>026-101>103-291100-
CENTRAL WYOMING

CITY           SKY/WX    TMP DP  RH WIND       PRES   REMARKS
BIG PINEY      FAIR      30  16  56 N12       30.28S WCI  20
PINEDALE       FAIR      28  21  74 NW7       30.29R WCI  21
DUBOIS         FAIR      32  14  47 NW15      30.27R WCI  22
LANDER         FAIR      39  17  41 W10       30.24S WCI  32
RIVERTON       FAIR      36  14  40 SW9       30.25R WCI  29
CASPER         FAIR      35  15  44 E3        30.23R
DOUGLAS        FAIR      41  25  53 N14       30.21R

$$
WYZ021-027>030-104>119-291100-
SOUTHERN WYOMING

CITY           SKY/WX    TMP DP  RH WIND       PRES   REMARKS
EVANSTON       FAIR      35  17  47 S5        30.30F WCI  31
ROCK SPRINGS   FAIR      35  17  47 NW7       30.29R WCI  29
DIXON          FAIR      30  20  66 CALM      30.28S
RAWLINS        FAIR      33  18  53 N12       30.26R WCI  24
SARATOGA       FAIR      34  21  60 W10       30.25R WCI  26
LARAMIE        FAIR      36  17  46 N18G25    30.19R WCI  26
CHEYENNE       FAIR      47  19  33 NW24G37   30.11R
TORRINGTON     FAIR      48  16  27 NW35G46   30.09R
PINE BLUFFS    FAIR      36  18  48 W5        30.12R WCI  32

$$



USA.gov is the U.S. government's official web portal to all federal, state and local government web resources and services.